Location: Atherton
(17.2661°S, 145.4859°E)
Time: 00:14:42
(UTC+10:00)

Vanguard 1 - Pass Details

Date: 28 June 2025
Orbit: 649 x 3822 km, 34.2° (Epoch: 17 July)

Event Time Altitude Azimuth Distance (km) Brightness Sun altitude
Rises 00:12:57 0° 234° (SW) 4,496 - -83.7°
Reaches altitude 10° 00:16:58 10° 224° (SW) 3,047 - -83.9°
Maximum altitude 00:22:49 29° 165° (SSE) 1,477 - -84.0°
Drops below altitude 10° 00:27:02 10° 102° (ESE) 2,156 - -83.8°
Sets 00:29:22 0° 90° (E) 2,980 - -83.7°
